| time (UTC) | temp C | wind direction | speed KPH | gust KPH | rain 1hr cm | rain 24hr cm | rain mn cm | humidity % | barometer mb |
| 20260502163100 | 23 | 238 | 3.2 | 8.0 | 0.00 | 0.00 | 0.00 | 35 | 1017.8 |
| 20260502161556 | 24 | 232 | 1.6 | 8.0 | 0.00 | 0.00 | 0.00 | 32 | 1017.9 |
| 20260502161249 | 25 | 225 | 3.2 | 4.8 | 0.00 | 0.00 | 0.00 | 33 | 1018.7 |
| 20260502151549 | 26 | 236 | 4.8 | 8.0 | 0.00 | 0.00 | 0.00 | 30 | 1018.5 |
| 20260502151446 | 26 | 225 | 6.4 | 9.7 | 0.00 | 0.00 | 0.00 | 29 | 1019.5 |
| 20260502123024 | 24 | 192 | 3.2 | 9.7 | 0.00 | 0.00 | 0.00 | 32 | 1020.9 |
| 20260502121514 | 24 | 180 | 4.8 | 16.1 | 0.00 | 0.00 | 0.00 | 32 | 1021.0 |
| 20260502121231 | 24 | 225 | 6.4 | 11.3 | 0.00 | 0.00 | 0.00 | 33 | 1021.9 |
| 20260502114509 | 23 | 199 | 4.8 | 16.1 | 0.00 | 0.00 | 0.00 | 33 | 1021.4 |
| 20260502113006 | 23 | 237 | 4.8 | 9.7 | 0.00 | 0.00 | 0.00 | 30 | 1021.7 |
| 20260502111503 | 23 | 210 | 1.6 | 12.9 | 0.00 | 0.00 | 0.00 | 38 | 1022.0 |
| 20260502111245 | 23 | 225 | 8.0 | 12.9 | 0.00 | 0.00 | 0.00 | 41 | 1023.0 |
| 20260502110001 | 23 | 254 | 4.8 | 14.5 | 0.00 | 0.00 | 0.00 | 42 | 1022.2 |
| 20260502104558 | 22 | 214 | 4.8 | 9.7 | 0.00 | 0.00 | 0.00 | 42 | 1022.4 |
| 20260502103055 | 22 | 117 | 1.6 | 9.7 | 0.00 | 0.00 | 0.00 | 41 | 1022.7 |
| 20260502101553 | 22 | 232 | 3.2 | 8.0 | 0.00 | 0.00 | 0.00 | 43 | 1022.8 |
| 20260502101256 | 22 | 225 | 4.8 | 9.7 | 0.00 | 0.00 | 0.00 | 43 | 1023.8 |
| 20260502091226 | 20 | 248 | 6.4 | 9.7 | 0.00 | 0.00 | 0.00 | 46 | 1024.2 |
| 20260502071513 | 14 | 107 | 0.0 | 3.2 | 0.00 | 0.00 | 0.00 | 62 | 1024.5 |
| 20260502071150 | 14 | 0.0 | 1.6 | 0.00 | 0.00 | 0.00 | 64 | 1025.3 | |
| 20260502070010 | 13 | 107 | 0.0 | 1.6 | 0.00 | 0.00 | 0.00 | 63 | 1024.6 |
| 20260502064515 | 12 | 107 | 1.6 | 3.2 | 0.00 | 0.00 | 0.00 | 65 | 1024.6 |
| 20260502063005 | 11 | 107 | 0.0 | 1.6 | 0.00 | 0.00 | 0.00 | 71 | 1024.8 |
| 20260502061557 | 8 | 106 | 0.0 | 3.2 | 0.00 | 0.00 | 0.00 | 77 | 1024.8 |
| 20260502061139 | 7 | 0.0 | 0.0 | 0.00 | 0.00 | 0.00 | 85 | 1025.3 | |
| 20260502060059 | 7 | 103 | 0.0 | 0.0 | 0.00 | 0.00 | 0.00 | 85 | 1024.9 |
| 20260502054606 | 4 | 108 | 0.0 | 0.0 | 0.00 | 0.00 | 0.00 | 87 | 1024.9 |
| 20260502053102 | 3 | 108 | 0.0 | 0.0 | 0.00 | 0.00 | 0.00 | 85 | 1025.0 |
| 20260502051554 | 3 | 108 | 0.0 | 0.0 | 0.00 | 0.00 | 0.00 | 85 | 1024.8 |
| 20260502050907 | 3 | 0.0 | 0.0 | 0.00 | 0.00 | 0.00 | 85 | 1024.9 | |
| 20260502050052 | 3 | 108 | 0.0 | 0.0 | 0.00 | 0.00 | 0.00 | 85 | 1024.9 |
| 20260502044552 | 3 | 108 | 0.0 | 0.0 | 0.00 | 0.00 | 0.00 | 84 | 1024.9 |
| 20260502043054 | 3 | 108 | 0.0 | 0.0 | 0.00 | 0.00 | 0.00 | 84 | 1025.0 |
| 20260502041555 | 3 | 108 | 0.0 | 0.0 | 0.00 | 0.00 | 0.00 | 84 | 1024.9 |
| 20260502041207 | 3 | 0.0 | 0.0 | 0.00 | 0.00 | 0.00 | 84 | 1025.1 | |
| 20260502040048 | 3 | 108 | 0.0 | 0.0 | 0.00 | 0.00 | 0.00 | 84 | 1025.0 |
| 20260502034550 | 3 | 108 | 0.0 | 0.0 | 0.00 | 0.00 | 0.00 | 84 | 1024.8 |
| 20260502033046 | 3 | 108 | 0.0 | 0.0 | 0.00 | 0.00 | 0.00 | 83 | 1024.9 |
| 20260502031544 | 3 | 108 | 0.0 | 0.0 | 0.00 | 0.00 | 0.00 | 82 | 1025.0 |
| 20260502031136 | 4 | 0.0 | 0.0 | 0.00 | 0.00 | 0.00 | 83 | 1025.3 | |
| 20260502030048 | 3 | 108 | 0.0 | 0.0 | 0.00 | 0.00 | 0.00 | 83 | 1025.1 |
| 20260502024541 | 4 | 108 | 0.0 | 0.0 | 0.00 | 0.00 | 0.00 | 83 | 1025.2 |
| 20260502023041 | 4 | 108 | 0.0 | 0.0 | 0.00 | 0.00 | 0.00 | 83 | 1025.3 |
| 20260502021538 | 4 | 108 | 0.0 | 0.0 | 0.00 | 0.00 | 0.00 | 82 | 1025.2 |
| 20260502021107 | 5 | 0.0 | 0.0 | 0.00 | 0.00 | 0.00 | 81 | 1025.6 | |
| 20260502020039 | 4 | 108 | 0.0 | 0.0 | 0.00 | 0.00 | 0.00 | 81 | 1025.4 |
| 20260502014533 | 5 | 108 | 0.0 | 0.0 | 0.00 | 0.00 | 0.00 | 81 | 1025.4 |
| 20260502013034 | 5 | 108 | 0.0 | 3.2 | 0.00 | 0.00 | 0.00 | 81 | 1025.4 |
| 20260502011529 | 5 | 108 | 0.0 | 1.6 | 0.00 | 0.00 | 0.00 | 80 | 1025.5 |
| 20260502011138 | 6 | 0.0 | 0.0 | 0.00 | 0.00 | 0.00 | 79 | 1026.1 | |
| 20260502010026 | 5 | 108 | 0.0 | 1.6 | 0.00 | 0.00 | 0.00 | 79 | 1025.7 |
| 20260502004524 | 6 | 108 | 0.0 | 0.0 | 0.00 | 0.00 | 0.00 | 79 | 1025.8 |
| 20260502003022 | 6 | 108 | 0.0 | 1.6 | 0.00 | 0.00 | 0.00 | 79 | 1025.9 |
| 20260502001525 | 6 | 108 | 1.6 | 3.2 | 0.00 | 0.00 | 0.00 | 78 | 1026.0 |
| 20260502000906 | 7 | 0.0 | 0.0 | 0.00 | 0.00 | 0.00 | 76 | 1026.3 | |
| 20260502000019 | 6 | 108 | 0.0 | 1.6 | 0.00 | 0.00 | 0.00 | 77 | 1026.1 |
| 20260501234515 | 7 | 108 | 0.0 | 1.6 | 0.00 | 0.00 | 0.00 | 76 | 1026.1 |
| 20260501233015 | 7 | 108 | 0.0 | 3.2 | 0.00 | 0.00 | 0.00 | 76 | 1026.0 |
| 20260501231513 | 7 | 108 | 0.0 | 0.0 | 0.00 | 0.00 | 0.00 | 75 | 1026.2 |
| 20260501231105 | 7 | 0.0 | 0.0 | 0.00 | 0.00 | 0.00 | 75 | 1026.5 | |
| 20260501230011 | 7 | 108 | 0.0 | 3.2 | 0.00 | 0.00 | 0.00 | 75 | 1026.1 |
| 20260501224507 | 7 | 107 | 0.0 | 1.6 | 0.00 | 0.00 | 0.00 | 74 | 1026.2 |
| 20260501223006 | 8 | 107 | 0.0 | 1.6 | 0.00 | 0.00 | 0.00 | 73 | 1026.2 |
| 20260501221502 | 8 | 107 | 0.0 | 0.0 | 0.00 | 0.00 | 0.00 | 71 | 1026.3 |
| 20260501221053 | 9 | 0.0 | 0.0 | 0.00 | 0.00 | 0.00 | 70 | 1026.6 | |
| 20260501220059 | 8 | 107 | 0.0 | 1.6 | 0.00 | 0.00 | 0.00 | 70 | 1026.3 |
| 20260501214558 | 9 | 107 | 0.0 | 1.6 | 0.00 | 0.00 | 0.00 | 68 | 1026.2 |
| 20260501213109 | 10 | 107 | 0.0 | 0.0 | 0.00 | 0.00 | 0.00 | 68 | 1026.2 |
| 20260501211610 | 10 | 107 | 0.0 | 3.2 | 0.00 | 0.00 | 0.00 | 67 | 1026.2 |
| 20260501211044 | 11 | 0.0 | 1.6 | 0.00 | 0.00 | 0.00 | 65 | 1026.6 | |
| 20260501210057 | 10 | 107 | 0.0 | 1.6 | 0.00 | 0.00 | 0.00 | 65 | 1026.3 |
| 20260501204557 | 11 | 107 | 0.0 | 1.6 | 0.00 | 0.00 | 0.00 | 63 | 1026.2 |
| 20260501203054 | 11 | 107 | 0.0 | 3.2 | 0.00 | 0.00 | 0.00 | 62 | 1026.2 |
| 20260501201555 | 11 | 107 | 0.0 | 0.0 | 0.00 | 0.00 | 0.00 | 61 | 1026.3 |
| 20260501201055 | 12 | 0.0 | 0.0 | 0.00 | 0.00 | 0.00 | 59 | 1026.6 | |
| 20260501200054 | 12 | 107 | 0.0 | 1.6 | 0.00 | 0.00 | 0.00 | 59 | 1026.3 |
| 20260501194601 | 13 | 105 | 0.0 | 1.6 | 0.00 | 0.00 | 0.00 | 57 | 1026.2 |
| 20260501193053 | 15 | 105 | 0.0 | 1.6 | 0.00 | 0.00 | 0.00 | 53 | 1026.2 |
| 20260501191554 | 15 | 106 | 0.0 | 3.2 | 0.00 | 0.00 | 0.00 | 47 | 1026.1 |
| 20260501191027 | 16 | 90 | 1.6 | 1.6 | 0.00 | 0.00 | 0.00 | 47 | 1026.3 |
| 20260501190052 | 16 | 101 | 0.0 | 3.2 | 0.00 | 0.00 | 0.00 | 47 | 1026.1 |
| 20260501184551 | 16 | 102 | 0.0 | 3.2 | 0.00 | 0.00 | 0.00 | 46 | 1026.0 |
| 20260501183052 | 17 | 103 | 0.0 | 3.2 | 0.00 | 0.00 | 0.00 | 43 | 1025.9 |
| 20260501181551 | 18 | 101 | 1.6 | 3.2 | 0.00 | 0.00 | 0.00 | 39 | 1025.9 |
| 20260501180755 | 20 | 90 | 1.6 | 3.2 | 0.00 | 0.00 | 0.00 | 38 | 1025.7 |
| 20260501180050 | 19 | 84 | 0.0 | 4.8 | 0.00 | 0.00 | 0.00 | 39 | 1025.8 |
| 20260501174551 | 20 | 84 | 1.6 | 4.8 | 0.00 | 0.00 | 0.00 | 38 | 1025.8 |